1499590800.95,33521,17.88,74258.8,18.79,-4.81,-15.95,0,*79
1499590802.2,33522,17.88,74258.5,18.71,-4.49,-16.13,0,*7B
1499590803.43,33523,17.88,74258.8,18.69,-3.79,-15.85,0,*7B
1499590804.68,33524,17.88,74256.8,18.63,-3.43,-15.43,0,*75
1499590805.94,33525,17.88,74256.5,18.57,-4.21,-17.17,0,*73
1499590807.19,33526,17.88,74260.8,18.49,-5.31,-18.41,0,*73
1499590808.4,33527,17.88,74258.3,18.47,-4.53,-17.63,0,*76
1499590809.64,33528,17.88,74262.3,18.41,-5.39,-18.59,0,*74
1499590810.9,33529,17.88,74260.5,18.31,-4.85,-18.01,0,*79
1499590812.11,33530,17.88,74260.8,18.25,-5.39,-18.73,0,*77
1499590813.32,33531,17.88,74260.8,18.21,-5.61,-19.07,0,*7D
1499590814.53,33532,17.88,74262.0,18.13,-7.11,-20.93,0,*7D
1499590815.75,33533,17.88,74262.3,18.05,-6.13,-19.81,0,*71
1499590816.99,33534,17.88,74262.0,18.01,-6.05,-19.81,0,*75
1499590818.24,33535,17.88,74262.0,17.97,-5.97,-19.85,0,*78
1499590819.49,33536,17.88,74262.3,17.91,-5.69,-19.27,0,*74
1499590820.71,33537,17.88,74260.5,17.87,-7.31,-21.47,0,*70
1499590821.93,33538,17.88,74260.0,17.79,-7.43,-21.43,0,*7F
1499590823.16,33539,17.88,74260.3,17.75,-7.77,-21.77,0,*72
1499590824.41,33540,17.88,74258.8,17.69,-7.91,-21.87,0,*76
1499590825.64,33541,17.88,74266.3,17.63,-8.17,-22.27,0,*75
1499590826.86,33542,17.88,74260.0,17.59,-8.89,-23.13,0,*7E
1499590828.06,33543,17.88,74266.5,17.53,-8.17,-22.41,0,*74
1499590829.28,33544,17.88,74264.5,17.49,-7.83,-22.21,0,*7C
1499590830.51,33545,17.88,74262.8,17.43,-9.23,-23.79,0,*7F
1499590831.71,33546,17.88,74262.3,17.41,-8.89,-23.75,0,*73
1499590832.94,33547,17.88,74264.0,17.35,-8.37,-23.09,0,*7F
1499590834.18,33548,17.88,74264.5,17.31,-8.89,-23.75,0,*7A
1499590835.46,33549,17.88,74266.3,17.27,-9.11,-23.85,0,*73
1499590836.68,33550,17.88,74266.5,17.21,-9.41,-24.35,0,*74
1499590837.91,33551,17.88,74266.3,17.15,-9.71,-24.35,0,*71
1499590839.13,33552,17.88,74262.3,17.13,-10.09,-24.83,0,*4E
1499590840.37,33553,17.88,74264.8,17.09,-10.97,-25.75,0,*4B
1499590841.65,33554,17.88,74266.8,17.05,-11.07,-25.71,0,*4C
1499590842.91,33555,17.88,74264.8,16.95,-11.07,-25.45,0,*42
1499590844.11,33556,17.88,74266.0,16.91,-10.89,-25.35,0,*45
1499590845.34,33557,17.88,74264.0,16.89,-10.57,-24.93,0,*43
1499590846.55,33558,17.88,74264.8,16.83,-10.31,-24.47,0,*4F
1499590847.81,33559,17.88,74262.5,16.83,-9.11,-23.19,0,*78
1499590849.08,33560,17.88,74260.5,16.77,-9.57,-23.29,0,*78
1499590850.3,33561,17.88,74262.8,16.73,-9.37,-22.93,0,*7B
1499590851.56,33562,17.88,74264.5,16.75,-9.11,-22.41,0,*75
1499590852.81,33563,17.88,74262.3,16.73,-9.45,-22.77,0,*76
1499590854.03,33564,17.88,74264.8,16.71,-9.67,-22.97,0,*7D
1499590855.22,33565,17.88,74266.0,16.69,-9.93,-23.13,0,*73
1499590856.44,33566,17.88,74266.3,16.69,-10.09,-23.29,0,*42
1499590857.68,33567,17.88,74266.8,16.65,-9.57,-22.31,0,*74
1499590858.87,33568,17.88,74266.3,16.65,-6.69,-18.83,0,*79
1499590860.1,33569,17.88,74264.0,16.71,-4.09,-15.75,0,*7D
1499590861.37,33570,17.88,74264.5,16.75,-3.67,-15.01,0,*7D
1499590862.58,33571,17.88,74266.3,16.87,-4.29,-15.53,0,*7B
1499590863.83,33572,17.88,74268.0,16.89,-5.19,-16.41,0,*74
1499590865.07,33573,17.88,74264.8,16.93,-7.43,-18.83,0,*73
1499590866.32,33574,17.88,74264.3,16.93,-8.55,-19.81,0,*7F
1499590867.55,33575,17.88,74264.5,16.97,-7.15,-17.87,0,*79
1499590868.75,33576,17.88,74262.5,16.99,-6.69,-16.97,0,*7E
1499590869.99,33577,17.88,74264.5,17.01,-6.39,-16.65,0,*77
1499590871.26,33578,17.88,74262.3,17.11,-6.63,-16.65,0,*76
1499590872.51,33579,17.88,74266.5,17.13,-7.65,-17.63,0,*75
1499590873.7,33580,17.88,74268.0,17.17,-8.41,-18.21,0,*77
1499590874.9,33581,17.88,74270.8,17.17,-10.15,-19.75,0,*4E
1499590876.15,33582,17.88,74270.5,17.17,-13.79,-23.69,0,*40
1499590877.35,33583,17.88,74270.5,17.17,-12.97,-22.27,0,*4B
1499590878.61,33584,17.88,74272.0,17.15,-11.73,-20.39,0,*4A
1499590879.86,33585,17.88,74268.8,17.15,-9.45,-17.69,0,*76
1499590881.11,33586,17.88,74270.3,17.15,-9.23,-17.17,0,*7C
1499590882.34,33587,17.88,74270.3,17.21,-6.89,-14.47,0,*73
1499590883.57,33588,17.88,74270.3,17.29,-6.85,-14.47,0,*78
1499590884.82,33589,17.88,74272.8,17.35,-8.37,-15.85,0,*7C
1499590886.05,33590,17.88,74270.3,17.39,-8.33,-15.53,0,*77
1499590887.29,33591,17.88,74274.8,17.45,-8.03,-14.93,0,*73
1499590888.57,33592,17.88,74270.8,17.51,-8.07,-14.83,0,*70
1499590889.82,33593,17.88,74270.8,17.55,-8.29,-15.01,0,*72
1499590891.06,33594,17.88,74270.8,17.59,-8.33,-14.83,0,*79
1499590892.31,33595,17.88,74268.5,17.63,-8.25,-14.75,0,*7F
1499590893.51,33596,17.88,74270.0,17.69,-9.31,-15.67,0,*70
1499590894.73,33597,17.88,74270.5,17.69,-9.45,-15.67,0,*72
1499590895.95,33598,17.88,74270.0,17.75,-8.41,-14.51,0,*71
1499590897.15,33599,17.88,74270.3,17.79,-7.83,-13.55,0,*7E
1499590898.43,33600,17.88,74268.8,17.85,-7.61,-13.33,0,*72
1499590899.67,33601,17.88,74270.0,17.89,-8.03,-13.65,0,*77
1499590900.9,33602,17.88,74270.8,17.99,-7.19,-12.53,0,*75
1499590902.16,33603,17.88,74266.8,18.01,-7.65,-13.01,0,*77
1499590903.41,33604,17.88,74264.5,18.07,-7.69,-13.07,0,*7C
1499590904.66,33605,17.88,74270.3,18.13,-8.07,-13.33,0,*78
1499590905.9,33606,17.88,74270.0,18.17,-8.71,-14.01,0,*78
1499590907.16,33607,17.88,74266.3,18.21,-9.15,-14.47,0,*7D
1499590908.39,33608,17.88,74268.3,18.25,-9.61,-14.89,0,*77
1499590909.63,33609,17.88,74266.8,18.27,-9.61,-14.69,0,*7A
1499590910.84,33610,17.88,74266.0,18.29,-9.57,-14.69,0,*79
1499590912.07,33611,17.88,74268.8,18.31,-9.23,-14.15,0,*79
1499590913.28,33612,17.88,74266.8,18.37,-9.89,-14.69,0,*77
1499590914.5,33613,17.88,74264.8,18.41,-10.09,-15.07,0,*4E
1499590915.73,33614,17.88,74268.0,18.43,-10.85,-15.81,0,*41
1499590916.98,33615,17.88,74264.0,18.45,-11.85,-16.75,0,*4F
1499590918.21,33616,17.88,74268.3,18.47,-11.73,-16.59,0,*49
1499590919.44,33617,17.88,74266.0,18.47,-12.07,-16.75,0,*46
1499590920.66,33618,17.88,74268.0,18.45,-11.19,-15.75,0,*44
1499590921.89,33619,17.88,74270.8,18.49,-11.23,-15.71,0,*44
1499590923.12,33620,17.88,74266.3,18.51,-10.35,-14.75,0,*44
1499590924.36,33621,17.88,74270.0,18.55,-9.83,-14.01,0,*77
1499590925.58,33622,17.88,74266.8,18.57,-10.05,-14.33,0,*41
1499590926.78,33623,17.88,74264.3,18.59,-9.71,-13.93,0,*78
1499590928.01,33624,17.88,74264.0,18.65,-8.71,-12.97,0,*74
1499590929.24,33625,17.88,74268.8,18.69,-8.11,-12.29,0,*7A
1499590930.47,33626,17.88,74266.3,18.73,-7.83,-11.89,0,*7F
1499590931.67,33627,17.88,74266.5,18.81,-7.87,-12.03,0,*76
1499590932.9,33628,17.88,74268.8,18.81,-8.25,-12.61,0,*7A
1499590934.15,33629,17.88,74264.8,18.87,-9.37,-14.15,0,*7A
1499590935.39,33630,17.88,74270.5,18.89,-10.57,-15.39,0,*4D
1499590936.6,33631,17.88,74266.8,18.93,-10.93,-15.95,0,*49
1499590937.83,33632,17.88,74264.8,18.93,-9.41,-14.15,0,*74
1499590939.06,33633,17.88,74264.5,18.95,-8.85,-13.55,0,*79
1499590940.27,33634,17.88,74264.0,18.97,-10.09,-15.25,0,*40
1499590941.49,33635,17.88,74266.0,18.97,-8.85,-13.83,0,*76
1499590942.73,33636,17.88,74266.3,19.01,-8.89,-14.19,0,*73
1499590943.92,33637,17.88,74264.0,19.03,-8.75,-14.33,0,*7B
1499590945.12,33638,17.88,74266.3,19.07,-7.49,-12.89,0,*77
1499590946.37,33639,17.88,74266.5,19.09,-6.55,-11.73,0,*72
1499590947.6,33640,17.88,74264.3,19.13,-6.77,-12.43,0,*77
1499590948.82,33641,17.88,74268.3,19.17,-6.43,-12.25,0,*75
1499590950.04,33642,17.88,74266.3,19.21,-6.31,-12.21,0,*72
1499590951.26,33643,17.88,74264.8,19.25,-6.01,-12.43,0,*70
1499590952.49,33644,17.88,74264.0,19.25,-6.01,-12.89,0,*71
1499590953.72,33645,17.88,74260.3,19.33,-5.97,-12.79,0,*74
1499590954.91,33646,17.88,74266.5,19.33,-6.77,-13.47,0,*76
1499590956.14,33647,17.88,74266.3,19.35,-7.11,-14.29,0,*7F
1499590957.34,33648,17.88,74264.5,19.37,-6.43,-13.65,0,*7B
1499590958.54,33649,17.88,74264.5,19.37,-6.01,-13.23,0,*7E
1499590959.8,33650,17.88,74262.5,19.39,-6.55,-14.01,0,*7E
1499590961.04,33651,17.88,74266.3,19.43,-6.23,-13.69,0,*7A
1499590962.28,33652,17.88,74262.3,19.43,-5.69,-13.69,0,*74
1499590963.53,33653,17.88,74266.0,19.47,-5.15,-13.43,0,*72
1499590964.75,33654,17.88,74264.3,19.47,-4.29,-12.97,0,*73
1499590965.95,33655,17.88,74264.5,19.49,-4.17,-13.65,0,*7D
1499590967.14,33656,17.88,74266.3,19.53,-3.95,-13.47,0,*78
1499590968.36,33657,17.88,74264.0,19.49,-4.05,-13.79,0,*71
1499590969.59,33658,17.88,74266.3,19.49,-4.05,-13.83,0,*7B
1499590970.79,33659,17.88,74260.0,19.53,-3.19,-13.19,0,*78
1499590971.98,33660,17.88,74266.0,19.53,-3.11,-13.73,0,*76
1499590973.23,33661,17.88,74266.8,19.55,-4.61,-15.57,0,*71
1499590974.45,33662,17.88,74266.8,19.53,-5.07,-15.67,0,*76
1499590975.65,33663,17.88,74264.0,19.49,-4.29,-14.61,0,*76
1499590976.85,33664,17.94,74268.5,19.53,-2.99,-12.93,0,*7C
1499590978.06,33665,17.88,74260.8,19.53,-4.65,-15.29,0,*7E
1499590979.31,33666,17.88,74264.0,19.55,-4.89,-15.49,0,*7F
1499590980.54,33667,17.88,74266.3,19.53,-3.83,-14.47,0,*7A
1499590981.77,33668,17.88,74264.5,19.53,-2.47,-12.93,0,*73
1499590982.99,33669,17.88,74264.5,19.57,-0.97,-11.41,0,*45
1499590984.21,33670,17.88,74266.3,19.61,-2.39,-12.75,0,*7A
1499590985.49,33671,17.88,74262.3,19.65,-1.09,-11.07,0,*79
1499590986.73,33672,17.88,74266.0,19.65,-2.39,-12.11,0,*7E
1499590987.98,33673,17.88,74268.0,19.69,-3.55,-13.23,0,*78
1499590989.23,33674,17.88,74266.8,19.69,-2.35,-11.29,0,*70
1499590990.46,33675,17.88,74268.0,19.75,-1.83,-10.49,0,*75
1499590991.68,33676,17.88,74264.0,19.79,-2.79,-11.29,0,*7B
1499590992.9,33677,17.88,74264.8,19.81,-2.91,-11.01,0,*71
1499590994.15,33678,17.88,74268.0,19.85,-2.55,-10.35,0,*74
1499590995.4,33679,17.88,74264.8,19.89,-3.07,-10.71,0,*7F
1499590996.63,33680,17.88,74262.3,19.93,-3.19,-10.53,0,*7D
1499590997.85,33681,17.94,74268.3,19.95,-4.13,-11.73,0,*74
1499590999.1,33682,17.94,74270.0,20.01,-4.41,-11.89,0,*72
1499591000.31,33683,17.88,74270.0,20.03,-4.45,-11.67,0,*75
1499591001.57,33684,17.88,74264.0,20.07,-3.47,-10.63,0,*76
1499591002.82,33685,17.88,74266.8,20.09,-3.35,-10.67,0,*78
1499591004.07,33686,17.88,74266.8,20.13,-3.87,-11.51,0,*7D
1499591005.3,33687,17.88,74264.8,20.15,-2.91,-10.71,0,*7F
1499591006.51,33688,17.88,74264.0,20.17,-2.91,-10.85,0,*79
1499591007.74,33689,17.88,74264.5,20.23,-2.75,-11.01,0,*78
1499591008.95,33690,17.88,74264.8,20.27,-2.59,-11.15,0,*7F
1499591010.17,33691,17.88,74270.0,20.27,-2.83,-11.59,0,*71
1499591011.39,33692,17.88,74268.8,20.29,-3.23,-11.97,0,*75
1499591012.64,33693,17.94,74270.5,20.31,-2.71,-11.11,0,*75
1499591013.89,33694,17.88,74268.8,20.29,-1.35,-9.15,0,*45
1499591015.13,33695,17.94,74268.0,20.31,-0.45,-7.69,0,*7E
1499591016.35,33696,17.94,74268.0,20.33,1.09,-5.39,0,*6C
1499591017.58,33697,17.88,74268.0,20.35,2.35,-3.59,0,*67
1499591018.82,33698,17.94,74268.0,20.39,2.55,-3.11,0,*6E
1499591020.02,33699,17.88,74268.0,20.45,2.25,-3.31,0,*61
1499591021.22,33700,17.88,74268.3,20.45,0.21,-5.47,0,*51
1499591022.41,33701,17.88,74268.3,20.45,-0.57,-6.13,0,*7E
1499591023.63,33702,17.88,74270.3,20.43,-0.73,-6.47,0,*7C
1499591024.87,33703,17.88,74268.5,20.43,-0.37,-6.19,0,*76
1499591026.13,33704,17.88,74270.5,20.43,0.51,-5.27,0,*52
1499591027.4,33705,17.88,74266.8,20.39,1.33,-4.69,0,*60
1499591028.64,33706,17.94,74270.0,20.39,2.01,-4.17,0,*68
1499591029.84,33707,17.88,74268.8,20.45,3.19,-2.91,0,*62
1499591031.04,33708,17.88,74266.3,20.49,3.33,-3.07,0,*67
1499591032.25,33709,17.88,74270.3,20.49,2.05,-4.41,0,*67
1499591033.48,33710,17.88,74268.8,20.51,2.59,-4.05,0,*6F
1499591034.74,33711,17.88,74268.8,20.51,3.03,-3.63,0,*67
1499591035.94,33712,17.94,74268.0,20.53,3.37,-2.87,0,*6A
1499591037.15,33713,17.94,74270.3,20.57,4.79,-0.19,0,*57
1499591038.35,33714,17.88,74270.0,20.57,5.23,0.83,0,*70
1499591039.56,33715,17.88,74268.8,20.59,4.33,-0.11,0,*59
1499591040.8,33716,17.88,74270.5,20.59,2.81,-2.15,0,*63
1499591042.04,33717,17.88,74268.0,20.59,2.05,-3.91,0,*63
1499591043.28,33718,17.88,74270.8,20.55,1.13,-5.43,0,*6D
1499591044.55,33719,17.88,74268.0,20.51,1.13,-5.93,0,*65
1499591045.73,33720,17.88,74268.0,20.49,1.83,-5.35,0,*63
1499591046.97,33721,17.88,74268.8,20.47,0.87,-6.59,0,*50
1499591048.16,33722,17.94,74270.5,20.45,0.43,-6.97,0,*5B
1499591049.4,33723,17.88,74266.8,20.39,0.71,-6.55,0,*5E
1499591050.6,33724,17.94,74272.0,20.35,0.05,-6.55,0,*66
1499591051.8,33725,17.88,74270.5,20.33,0.01,-5.65,0,*65
1499591053.01,33726,17.94,74270.8,20.29,-0.29,-6.27,0,*7F
1499591054.22,33727,17.88,74270.5,20.23,-0.93,-6.43,0,*77
1499591055.45,33728,17.88,74270.8,20.21,-0.27,-6.09,0,*7B
1499591056.65,33729,17.94,74272.5,20.15,-0.81,-6.85,0,*75
1499591057.89,33730,17.94,74274.3,20.09,-1.87,-8.37,0,*40
1499591059.1,33731,17.94,74268.8,20.03,-1.87,-8.67,0,*4E
1499591060.3,33732,17.94,74270.5,19.95,-2.31,-10.09,0,*77
1499591061.53,33733,17.94,74268.0,19.89,-1.67,-10.15,0,*76
1499591062.78,33734,17.88,74268.5,19.81,-1.55,-10.75,0,*7E
1499591064.02,33735,17.94,74270.3,19.77,0.55,-9.01,0,*51
1499591065.2,33736,17.88,74268.0,19.75,0.09,-9.93,0,*62
1499591066.41,33737,17.94,74272.0,19.67,0.67,-10.19,0,*62
1499591067.63,33738,17.94,74272.3,19.67,-0.81,-11.97,0,*4F
1499591068.89,33739,17.94,74272.5,19.59,-0.89,-12.57,0,*44
1499591070.11,33740,17.94,74270.5,19.55,-2.23,-14.61,0,*77
1499591071.36,33741,17.94,74270.8,19.45,-2.75,-15.35,0,*74
1499591072.55,33742,17.88,74268.0,19.41,-0.77,-13.07,0,*44
1499591073.78,33743,17.88,74270.3,19.37,-1.05,-13.51,0,*73
1499591075.0,33744,17.88,74270.0,19.33,-0.89,-13.15,0,*45
1499591076.21,33745,17.94,74272.3,19.27,-2.15,-14.43,0,*72
1499591077.42,33746,17.88,74266.0,19.23,-1.59,-13.87,0,*71
1499591078.64,33747,17.94,74270.3,19.21,-0.45,-12.21,0,*43
1499591079.82,33748,17.94,74270.3,19.19,0.09,-11.11,0,*52
1499591081.02,33749,17.94,74272.8,19.19,0.21,-10.57,0,*6A
1499591082.21,33750,17.94,74270.5,19.19,-0.29,-11.01,0,*45
1499591083.43,33751,17.94,74272.0,19.17,-0.65,-10.89,0,*43
1499591084.6,33752,17.94,74270.8,19.15,0.01,-9.79,0,*6A
1499591085.77,33753,17.94,74272.3,19.15,-0.07,-8.93,0,*45
1499591086.98,33754,17.88,74268.5,19.15,-0.45,-9.15,0,*7B
1499591088.19,33755,17.94,74270.3,19.11,-0.15,-8.81,0,*77
1499591089.36,33756,17.88,74270.0,19.11,-0.15,-8.67,0,*7C
1499591090.56,33757,17.94,74270.3,19.11,0.01,-7.35,0,*6D
1499591091.78,33758,17.88,74270.8,19.07,1.51,-4.61,0,*63
1499591093.01,33759,17.94,74270.3,19.07,2.85,-2.07,0,*6E
1499591094.22,33760,17.94,74268.3,19.07,3.45,-0.53,0,*5A
1499591095.43,33761,17.88,74266.5,19.07,4.05,1.01,0,*43
1499591096.69,33762,17.94,74270.3,19.09,4.75,2.13,0,*49
1499591097.92,33763,17.94,74268.5,19.09,5.33,3.15,0,*4C
1499591099.13,33764,17.88,74266.8,19.09,7.51,5.67,0,*4E
1499591100.36,33765,17.94,74266.5,19.11,9.11,7.47,0,*4C
1499591101.59,33766,17.94,74266.5,19.13,9.57,7.79,0,*42
1499591102.83,33767,17.88,74264.0,19.17,9.03,7.15,0,*4C
1499591104.03,33768,17.94,74268.3,19.19,9.07,7.15,0,*49
1499591105.21,33769,17.94,74266.3,19.19,8.87,6.83,0,*4F
1499591106.47,33770,17.94,74268.3,19.21,8.55,6.43,0,*4F
1499591107.72,33771,17.94,74268.0,19.21,8.97,6.87,0,*48
1499591108.94,33772,17.94,74270.0,19.21,8.45,6.39,0,*41
1499591110.13,33773,17.94,74266.5,19.19,7.37,5.23,0,*49
1499591111.36,33774,17.88,74266.3,19.19,6.51,4.59,0,*43
1499591112.57,33775,17.94,74268.3,19.15,6.13,4.49,0,*49
1499591113.75,33776,17.94,74268.5,19.11,5.67,4.15,0,*47
1499591114.92,33777,17.94,74266.0,19.07,5.41,4.27,0,*44
1499591116.14,33778,17.94,74268.3,19.03,4.23,3.41,0,*4D
1499591117.37,33779,17.94,74272.3,18.97,3.33,3.07,0,*44
1499591118.58,33780,17.94,74270.3,18.93,4.71,4.81,0,*4E
1499591119.81,33781,17.94,74270.3,18.93,4.59,5.05,0,*48
1499591121.02,33782,17.94,74270.8,18.87,3.93,4.81,0,*42
1499591122.27,33783,17.94,74268.3,18.85,3.79,5.01,0,*4C
1499591123.48,33784,17.94,74268.0,18.85,4.33,5.89,0,*42
1499591124.7,33785,17.94,74270.5,18.79,4.45,6.03,0,*40
1499591125.91,33786,17.94,74270.0,18.79,3.93,5.49,0,*42
1499591127.12,33787,17.88,74264.5,18.77,3.71,5.41,0,*49
1499591128.38,33788,17.94,74268.3,18.75,3.97,5.51,0,*4D
1499591129.59,33789,17.94,74268.0,18.75,4.27,5.59,0,*48
1499591130.8,33790,17.94,74270.5,18.71,4.53,5.49,0,*46
1499591131.99,33791,17.94,74268.3,18.69,4.11,4.53,0,*42
1499591133.2,33792,17.94,74268.0,18.67,4.89,5.01,0,*48
1499591134.38,33793,17.94,74268.3,18.67,4.89,4.49,0,*44
1499591135.55,33794,17.94,74270.8,18.67,4.85,4.11,0,*42
1499591136.76,33795,17.88,74266.0,18.63,4.33,3.41,0,*48
1499591137.99,33796,17.94,74270.0,18.63,4.79,3.67,0,*41
1499591139.19,33797,17.88,74264.3,18.59,5.01,3.59,0,*4A
1499591140.45,33798,17.94,74266.0,18.57,4.59,2.69,0,*45
1499591141.65,33799,17.94,74270.3,18.53,4.27,2.31,0,*44
1499591142.87,33800,17.94,74268.3,18.53,4.97,2.91,0,*4A
1499591144.1,33801,17.94,74266.0,18.49,5.07,2.89,0,*41
1499591145.33,33802,17.94,74270.0,18.49,5.29,3.11,0,*4E
1499591146.5,33803,17.94,74270.3,18.47,5.33,2.99,0,*4B
1499591147.73,33804,17.94,74266.3,18.45,5.67,3.33,0,*4E
1499591148.98,33805,17.94,74266.5,18.45,5.73,3.33,0,*4A
1499591150.2,33806,17.94,74268.0,18.45,5.27,2.95,0,*45
1499591151.43,33807,17.94,74268.3,18.43,5.93,3.71,0,*46
1499591152.64,33808,17.94,74268.0,18.41,4.53,2.27,0,*44
1499591153.9,33809,17.94,74266.5,18.41,4.93,3.15,0,*49
1499591155.15,33810,17.94,74266.3,18.37,5.55,3.79,0,*41
1499591156.39,33811,17.94,74266.0,18.35,6.11,4.75,0,*4A
1499591157.61,33812,17.94,74266.3,18.35,6.69,5.41,0,*40
1499591158.87,33813,17.94,74266.8,18.37,7.15,5.93,0,*46
1499591160.1,33814,17.94,74268.0,18.35,6.93,5.77,0,*46
1499591161.33,33815,17.94,74264.3,18.35,6.65,5.63,0,*4B
1499591162.54,33816,17.94,74266.3,18.35,7.05,6.11,0,*49
1499591163.77,33817,17.94,74264.5,18.35,7.15,6.25,0,*4E
1499591164.99,33818,17.94,74264.3,18.35,7.15,6.25,0,*41
1499591166.22,33819,17.94,74266.3,18.35,7.15,6.21,0,*44
1499591167.4,33820,17.94,74268.3,18.33,7.41,6.29,0,*41
1499591168.61,33821,17.94,74262.8,18.33,6.97,5.73,0,*46
1499591169.84,33822,17.94,74266.3,18.31,6.87,5.59,0,*4E
1499591171.05,33823,17.94,74264.5,18.29,6.83,5.27,0,*4B
1499591172.31,33824,17.94,74264.0,18.27,6.47,4.63,0,*4B
1499591173.55,33825,17.94,74266.3,18.27,6.93,4.97,0,*48
1499591174.82,33826,17.94,74264.3,18.23,7.11,5.01,0,*4A
1499591176.04,33827,17.94,74262.5,18.23,6.21,3.89,0,*4F
1499591177.25,33828,17.94,74260.3,18.21,6.51,4.15,0,*47
1499591178.47,33829,17.94,74264.5,18.17,7.05,4.75,0,*45
1499591179.68,33830,17.94,74262.5,18.17,6.83,4.59,0,*4C
1499591180.92,33831,17.94,74262.3,18.13,5.89,3.79,0,*45
1499591182.14,33832,17.94,74260.5,18.09,6.29,4.05,0,*48
1499591183.35,33833,17.94,74262.5,18.05,6.39,4.11,0,*41
1499591184.56,33834,17.94,74258.0,18.03,6.65,4.33,0,*49
1499591185.76,33835,17.94,74260.3,18.01,6.83,4.53,0,*44
1499591187.0,33836,17.94,74262.5,17.99,6.87,4.63,0,*4E
1499591188.23,33837,17.94,74258.8,17.97,7.01,5.01,0,*4B
1499591189.47,33838,17.94,74258.5,17.89,6.53,4.57,0,*4F
1499591190.68,33839,17.94,74258.8,17.89,6.33,4.33,0,*4A
1499591191.92,33840,17.94,74262.5,17.87,6.61,4.63,0,*48
1499591193.1,33841,17.94,74262.3,17.83,6.75,4.85,0,*40
1499591194.33,33842,17.94,74260.5,17.81,6.73,4.89,0,*4B
1499591195.55,33843,17.94,74256.8,17.79,7.15,5.33,0,*4C
1499591196.78,33844,17.94,74260.0,17.79,7.19,5.55,0,*47
1499591198.04,33845,17.94,74262.3,17.77,7.73,6.13,0,*45
1499591199.25,33846,17.94,74260.3,17.75,7.27,5.63,0,*41
1499591200.51,33847,17.94,74262.5,17.73,6.17,4.59,0,*4C
1499591201.73,33848,17.94,74256.3,17.69,6.61,5.23,0,*45
1499591202.93,33849,17.94,74262.5,17.65,6.69,5.29,0,*4A
1499591204.14,33850,17.94,74260.0,17.67,7.05,5.59,0,*4C
1499591205.35,33851,17.94,74260.3,17.63,6.79,5.29,0,*44
1499591206.54,33852,17.94,74262.8,17.61,5.99,4.37,0,*46
1499591207.77,33853,17.94,74262.5,17.57,5.77,4.05,0,*43
1499591208.94,33854,17.94,74262.3,17.53,5.29,3.63,0,*4C
1499591210.19,33855,17.94,74262.3,17.51,5.51,3.79,0,*4B
1499591211.4,33856,17.94,74260.3,17.43,4.37,2.65,0,*46
1499591212.62,33857,17.94,74264.0,17.43,5.29,3.67,0,*4A
1499591213.84,33858,17.94,74262.5,17.43,6.29,4.49,0,*4D
1499591215.1,33859,17.94,74260.3,17.39,6.73,4.93,0,*49
1499591216.33,33860,17.94,74264.3,17.39,5.63,3.75,0,*4E
1499591217.57,33861,17.94,74266.3,17.35,5.81,3.89,0,*4C
1499591218.82,33862,17.94,74262.5,17.35,5.55,3.45,0,*46
1499591220.06,33863,17.94,74264.0,17.31,5.05,2.65,0,*45
1499591221.33,33864,17.94,74262.8,17.31,4.93,2.51,0,*4B
1499591222.53,33865,17.94,74266.8,17.29,4.67,2.27,0,*49
1499591223.76,33866,17.94,74262.8,17.27,4.97,2.27,0,*4B
1499591224.99,33867,17.94,74266.0,17.23,4.85,2.13,0,*4A
1499591226.22,33868,17.94,74266.8,17.19,4.07,1.43,0,*40
1499591227.44,33869,17.94,74266.5,17.17,3.79,0.87,0,*78
1499591228.67,33870,17.94,74262.5,17.15,3.81,0.95,0,*76
1499591229.9,33871,17.94,74264.8,17.13,3.79,0.91,0,*72
1499591231.12,33872,17.94,74264.5,17.09,3.49,0.63,0,*74
1499591232.35,33873,17.94,74264.8,17.09,3.53,0.51,0,*7F
1499591233.61,33874,17.94,74266.3,17.05,3.67,0.55,0,*77
1499591234.83,33875,17.94,74266.8,17.05,4.01,1.01,0,*41
1499591236.08,33876,17.94,74268.0,17.05,3.79,0.55,0,*7A
1499591237.33,33877,17.94,74270.8,17.01,4.01,0.71,0,*71
1499591238.56,33878,17.94,74268.8,16.99,3.67,0.41,0,*7A
1499591239.79,33879,17.94,74268.0,16.99,3.67,0.25,0,*79
1499591240.97,33880,17.94,74268.3,16.99,2.91,-0.61,0,*5A
1499591242.21,33881,17.94,74268.3,16.97,3.45,-0.11,0,*5A
1499591243.45,33882,17.94,74270.0,16.97,3.11,-0.61,0,*5F
1499591244.68,33883,17.94,74270.5,16.97,3.15,-0.29,0,*56
1499591245.89,33884,17.94,74266.5,16.95,3.81,0.37,0,*7C
1499591247.07,33885,17.94,74266.3,16.95,3.59,-0.11,0,*51
1499591248.3,33886,17.94,74268.8,16.95,4.31,0.87,0,*79
1499591249.53,33887,17.94,74268.0,16.95,4.63,0.63,0,*75
1499591250.78,33888,17.94,74264.5,16.97,5.55,1.29,0,*43
1499591252.01,33889,17.94,74272.3,16.97,5.95,1.29,0,*4E
1499591253.22,33890,17.94,74268.8,16.99,6.33,1.25,0,*4B
1499591254.44,33891,17.94,74270.3,16.99,6.43,1.01,0,*4B
1499591255.68,33892,17.94,74268.3,16.99,6.51,0.91,0,*73
1499591256.91,33893,17.94,74268.8,16.99,6.51,0.63,0,*7F
1499591258.15,33894,17.94,74266.5,16.99,7.19,1.25,0,*46
1499591259.36,33895,17.94,74268.8,16.99,7.29,1.21,0,*40
1499591260.61,33896,17.94,74268.8,17.01,6.91,0.51,0,*77
1499591261.79,33897,17.94,74268.8,16.99,5.49,-1.25,0,*6F
1499591263.03,33898,17.94,74268.3,16.97,4.85,-1.99,0,*68
1499591264.24,33899,17.94,74270.3,16.95,5.49,-1.47,0,*69
1499591265.43,33900,17.94,74270.5,16.91,6.07,-0.73,0,*53
1499591266.64,33901,17.94,74268.5,16.91,6.17,-0.57,0,*55
1499591267.91,33902,17.94,74272.8,16.89,6.39,-0.27,0,*54
1499591269.09,33903,17.94,74274.0,16.87,5.49,-1.17,0,*6D
1499591270.3,33904,17.94,74272.0,16.87,5.81,-0.29,0,*52
1499591271.48,33905,17.94,74272.0,16.83,6.11,0.05,0,*4E
1499591272.72,33906,17.94,74276.0,16.85,5.89,-0.15,0,*55
1499591273.91,33907,17.94,74272.8,16.83,5.67,-0.45,0,*57
1499591275.11,33908,17.94,74268.8,16.77,5.49,-0.65,0,*5D
1499591276.34,33909,17.94,74272.5,16.77,5.81,-0.37,0,*5F
1499591277.55,33910,17.94,74274.3,16.73,5.45,-1.05,0,*6B
1499591278.79,33911,17.94,74272.8,16.75,5.11,-1.43,0,*6F
1499591280.0,33912,17.94,74272.5,16.71,5.07,-1.55,0,*68
1499591281.18,33913,17.94,74270.5,16.69,5.49,-1.21,0,*69
1499591282.37,33914,17.94,74274.0,16.69,4.49,-2.23,0,*6E
1499591283.55,33915,17.94,74274.0,16.65,4.07,-2.91,0,*60
1499591284.76,33916,17.94,74272.5,16.63,4.11,-2.83,0,*61
1499591285.98,33917,17.94,74274.8,16.59,4.23,-2.87,0,*6C
1499591287.22,33918,17.94,74274.8,16.55,4.97,-2.15,0,*6B
1499591288.43,33919,17.94,74276.3,16.55,5.11,-2.43,0,*66
1499591289.66,33920,17.94,74272.5,16.51,4.81,-3.47,0,*65
1499591290.91,33921,17.94,74274.3,16.51,4.33,-4.89,0,*68
1499591292.15,33922,17.94,74278.8,16.47,3.49,-6.59,0,*69
1499591293.37,33923,17.94,74276.5,16.43,2.99,-7.91,0,*65
1499591294.61,33924,17.94,74274.3,16.43,3.53,-7.91,0,*65
1499591295.85,33925,17.94,74272.5,16.39,3.71,-8.51,0,*6A
1499591297.06,33926,17.94,74274.3,16.37,3.85,-8.75,0,*6A
1499591298.32,33927,17.94,74278.3,16.33,3.15,-10.01,0,*5C
1499591299.54,33928,17.94,74276.8,16.31,3.53,-9.67,0,*6B
1499591300.81,33929,17.94,74276.3,16.29,2.69,-11.59,0,*5F
1499591302.0,33930,17.94,74276.0,16.27,1.83,-13.43,0,*57
1499591303.21,33931,17.94,74278.3,16.23,2.21,-13.47,0,*5D
1499591304.43,33932,17.94,74276.0,16.21,2.35,-13.65,0,*59
1499591305.65,33933,17.94,74276.3,16.19,2.21,-14.33,0,*52
1499591306.91,33934,17.94,74278.8,16.17,1.55,-15.49,0,*57
1499591308.14,33935,17.94,74276.3,16.15,1.37,-15.63,0,*58
1499591309.36,33936,17.94,74276.3,16.15,0.87,-16.41,0,*62